Change the Weather History Date:

Sunday, March 22, 2009

  Actual Average Record
Temperature  
Mean Temperature 42 °F -  
Max Temperature 54 °F 61 °F - ()
Min Temperature 31 °F 40 °F - ()
Degree Days  
Heating Degree Days 22    
Moisture  
Dew Point 28 °F    
Average Humidity 57    
Maximum Humidity 100    
Minimum Humidity 19    
Precipitation  
Precipitation 0.00 in 0.06 in - ()
Sea Level Pressure  
Sea Level Pressure 29.90 in    
Wind  
Wind Speed 6 mph ()    
Max Wind Speed 12 mph    
Max Gust Speed -    
Visibility 6.0 miles    
Events      
T = Trace of Precipitation, MM = Missing Value Source: Averaged Metar Reports

Daily Weather History Graph

Daily Weather History Graph

Search for Another Location

Airport or City:

Trip Planner

Search our weather history database for the weather conditions in past years. The results will help you decide how hot, cold, wet, or windy it might be!

Date:

Astronomy

Mar. 22, 2009 Rise Set
Actual Time 6:15 AM EET 6:30 PM EET
Civil Twilight 5:46 AM EET 6:59 PM EET
Nautical Twilight 5:12 AM EET 7:33 PM EET
Astronomical Twilight 4:37 AM EET 8:09 PM EET
Moon 4:14 AM EET (3/22) 2:08 PM EET (3/22)
Length of Visible Light 13h 13m
Length of Day
12h 15m
Waning Crescent, 18% of the Moon is Illuminated
Mar 22
Waning Crescent
Mar 26
New
Apr 2
First Quarter
Apr 9
Full
Apr 17
Last Quarter

Hourly Weather History & Observations

Time (EET) Temp. Windchill Dew Point Humidity Pressure Visibility Wind Dir Wind Speed Gust Speed Precip Events Conditions
12:00 AM 35 °F - 25 °F 56% 30.08 in 6 mi NE 4.5 mph - -  
12:00 AM 35.6 °F 29.9 °F 32.0 °F 87% 30.04 in - NE 6.9 mph - N/A   Clear
12:30 AM 35.6 °F 30.7 °F 33.8 °F 93% 30.04 in - NE 5.8 mph - N/A   Clear
1:00 AM 35 °F - 27 °F 63% 30.06 in 6 mi NE 4.5 mph - -  
1:00 AM 35.6 °F 30.7 °F 33.8 °F 93% 30.04 in - NNE 5.8 mph - N/A   Clear
1:30 AM 33.8 °F 29.6 °F 33.8 °F 100% 30.04 in - NNE 4.6 mph - N/A   Clear
2:00 AM 33 °F - 27 °F 70% 30.05 in 6 mi NNE 4.5 mph - -   Scattered Clouds
2:00 AM 32.0 °F 26.4 °F 32.0 °F 100% 30.01 in - NE 5.8 mph - N/A   Clear
2:30 AM 33.8 °F 27.7 °F 32.0 °F 93% 30.01 in - NE 6.9 mph - N/A   Clear
3:00 AM 33 °F - 27 °F 69% 30.03 in 6 mi NE 4.5 mph - -  
3:00 AM 33.8 °F 26.4 °F 32.0 °F 93% 30.01 in - NE 9.2 mph - N/A   Clear
3:30 AM 33.8 °F 27.0 °F 32.0 °F 93% 29.98 in - NE 8.1 mph - N/A   Clear
4:00 AM 34 °F - 24 °F 57% 30.01 in 6 mi ENE 6.7 mph - -  
4:00 AM 33.8 °F 27.7 °F 30.2 °F 87% 29.98 in - NE 6.9 mph - N/A   Clear
4:30 AM 33.8 °F 27.0 °F 30.2 °F 87% 29.98 in - NE 8.1 mph - N/A   Clear
5:00 AM 33 °F - 24 °F 57% 29.99 in 6 mi NE 6.7 mph - -  
5:00 AM 33.8 °F 27.0 °F 30.2 °F 87% 29.98 in - NE 8.1 mph - N/A   Clear
5:30 AM 33.8 °F 26.4 °F 30.2 °F 87% 29.95 in - NNE 9.2 mph - N/A   Clear
6:00 AM 33 °F - 24 °F 57% 29.98 in 6 mi NE 6.7 mph - -  
6:00 AM 33.8 °F 26.4 °F 30.2 °F 87% 29.95 in - NNE 9.2 mph - N/A   Clear
6:30 AM 33.8 °F 26.4 °F 28.4 °F 81% 29.95 in - NNE 9.2 mph - N/A   Clear
7:00 AM 31 °F - 23 °F 61% 29.97 in 6 mi NNE 4.5 mph - -   Clear
7:00 AM 33.8 °F 28.6 °F 28.4 °F 81% 29.95 in - NNE 5.8 mph - N/A   Clear
7:30 AM 35.6 °F 30.7 °F 28.4 °F 75% 29.95 in - NNE 5.8 mph - N/A   Clear
8:00 AM 36 °F - 24 °F 50% 29.98 in 6 mi NE 6.7 mph - -   Clear
8:00 AM 39.2 °F 34.2 °F 28.4 °F 65% 29.95 in - NNE 6.9 mph - N/A   Clear
8:30 AM 41.0 °F 34.3 °F 28.4 °F 61% 29.95 in - NE 11.5 mph - N/A   Clear
9:00 AM 41 °F - 25 °F 40% 29.97 in 6 mi NNE 6.7 mph - -   Clear
9:00 AM 42.8 °F 38.0 °F 30.2 °F 61% 29.95 in - NE 8.1 mph - N/A   Clear
9:30 AM 42.8 °F 37.5 °F 30.2 °F 61% 29.95 in - NE 9.2 mph - N/A   Clear
10:00 AM 44 °F - 26 °F 37% 29.97 in 6 mi ENE 8.9 mph - -   Clear
10:00 AM 44.6 °F 39.7 °F 32.0 °F 61% 29.95 in - ENE 9.2 mph - N/A   Clear
10:30 AM 46.4 °F 41.1 °F 32.0 °F 57% 29.95 in - ENE 11.5 mph - N/A   Clear
11:00 AM 47 °F - 27 °F 32% 29.96 in 6 mi ENE 6.7 mph - -   Clear
11:00 AM 46.4 °F 42.9 °F 32.0 °F 57% 29.92 in 6.2 mi NE 6.9 mph - N/A   Partly Cloudy
11:30 AM 48.2 °F - 30.2 °F 50% 29.92 in 6.2 mi Variable 6.9 mph - N/A   Partly Cloudy
12:00 PM 49 °F - 26 °F 28% 29.94 in 6 mi ENE 6.7 mph - -   Scattered Clouds
12:00 PM 48.2 °F - 30.2 °F 50% 29.92 in 6.2 mi East 6.9 mph - N/A   Scattered Clouds
12:30 PM 48.2 °F - 28.4 °F 46% 29.89 in 6.2 mi East 4.6 mph - N/A   Scattered Clouds
1:00 PM 51 °F - 25 °F 23% 29.91 in 6 mi ESE 4.5 mph - -   Scattered Clouds
1:00 PM 50.0 °F - 26.6 °F 40% 29.89 in 6.2 mi Variable 5.8 mph - N/A   Scattered Clouds
1:30 PM 50.0 °F - 26.6 °F 40% 29.86 in - West 4.6 mph - N/A   Clear
2:00 PM 51 °F - 23 °F 21% 29.89 in 6 mi NW 6.7 mph - -   Partly Cloudy
2:00 PM 51.8 °F - 26.6 °F 38% 29.86 in - Variable 4.6 mph - N/A   Clear
2:30 PM 51.8 °F - 26.6 °F 38% 29.83 in - Variable 2.3 mph - N/A   Clear
3:00 PM 52 °F - 22 °F 19% 29.85 in 6 mi NNW 2.2 mph - -   Scattered Clouds
3:00 PM 51.8 °F - 26.6 °F 38% 29.83 in - South 3.5 mph - N/A   Clear
3:30 PM 53.6 °F - 28.4 °F 38% 29.80 in - West 8.1 mph - N/A   Clear
4:00 PM 53 °F - 24 °F 20% 29.82 in 6 mi SW 4.5 mph - -   Scattered Clouds
4:00 PM 53.6 °F - 28.4 °F 38% 29.80 in - WSW 6.9 mph - N/A   Clear
4:30 PM 53.6 °F - 28.4 °F 38% 29.77 in - SW 9.2 mph - N/A   Clear
5:00 PM 52 °F - 23 °F 20% 29.80 in 6 mi West 6.7 mph - -   Scattered Clouds
5:00 PM 51.8 °F - 28.4 °F 41% 29.77 in - WSW 8.1 mph - N/A   Clear
5:30 PM 51.8 °F - 28.4 °F 41% 29.74 in - WSW 10.4 mph - N/A   Clear
6:00 PM 50 °F - 23 °F 22% 29.78 in 6 mi WSW 8.9 mph - -  
6:00 PM 50.0 °F - 28.4 °F 43% 29.74 in - WSW 8.1 mph - N/A   Clear
6:30 PM 50.0 °F - 28.4 °F 43% 29.74 in - SW 6.9 mph - N/A   Clear
7:00 PM 47 °F - 22 °F 25% 29.78 in 6 mi WSW 6.7 mph - -  
7:00 PM 48.2 °F - 28.4 °F 46% 29.77 in - WSW 6.9 mph - N/A   Clear
7:30 PM 46.4 °F 42.9 °F 30.2 °F 53% 29.77 in - WSW 6.9 mph - N/A   Clear
8:00 PM 44 °F - 23 °F 30% 29.78 in 6 mi West 4.5 mph - -   Scattered Clouds
8:00 PM 46.4 °F 42.9 °F 30.2 °F 53% 29.77 in - WSW 6.9 mph - N/A   Clear
8:30 PM 46.4 °F 41.9 °F 30.2 °F 53% 29.77 in - WSW 9.2 mph - N/A   Clear
9:00 PM 42 °F - 24 °F 37% 29.79 in 6 mi West 4.5 mph - -  
9:00 PM 44.6 °F 40.7 °F 30.2 °F 57% 29.77 in - WSW 6.9 mph - N/A   Clear
9:30 PM 42.8 °F 39.3 °F 32.0 °F 66% 29.77 in - West 5.8 mph - N/A   Clear
10:00 PM 40 °F - 25 °F 43% 29.79 in 6 mi WSW 4.5 mph - -  
10:00 PM 41.0 °F 37.1 °F 33.8 °F 76% 29.77 in - West 5.8 mph - N/A   Clear
10:30 PM 41.0 °F 36.4 °F 35.6 °F 81% 29.77 in - West 6.9 mph - N/A   Clear
11:00 PM 40 °F - 29 °F 52% 29.79 in 6 mi West 6.7 mph - -  
11:00 PM 41.0 °F 36.4 °F 35.6 °F 81% 29.77 in - West 6.9 mph - N/A   Clear
11:30 PM 41.0 °F 37.1 °F 35.6 °F 81% 29.74 in - West 5.8 mph - N/A   Clear